Waycross, GA

12:38 AM EDT on October 17, 2017 (GMT -0400)
Waycross-Ware County

Weather History for KAYS - January, 2013

Change the Weather History Date:

Wednesday, January 23, 2013

  Actual Average (KAMG) Record (KAMG)
Temperature  
Mean Temperature 44 °F -  
Max Temperature 60 °F 61 °F 79 °F (1974)
Min Temperature 28 °F 40 °F 20 °F (1960)
Degree Days  
Heating Degree Days 21    
Moisture  
Dew Point 32 °F    
Average Humidity 65    
Maximum Humidity 93    
Minimum Humidity 35    
Precipitation  
Precipitation 0.00 in - - ()
Sea Level Pressure  
Sea Level Pressure 30.33 in    
Wind  
Wind Speed 2 mph (West)    
Max Wind Speed 10 mph    
Max Gust Speed 17 mph    
Visibility 9 miles    
Events      
Averages and records for this station are not official NWS values.
T = Trace of Precipitation, MM = Missing Value Source: NWS Daily Summary

Daily Weather History Graph

Daily Weather History Graph

Search for Another Location

Airport or City:

Trip Planner

Search our weather history database for the weather conditions in past years. The results will help you decide how hot, cold, wet, or windy it might be!

Date:

Astronomy

Jan. 23, 2013 Rise Set
Actual Time 7:26 AM EST 5:56 PM EST
Civil Twilight 7:00 AM EST 6:22 PM EST
Nautical Twilight 6:31 AM EST 6:52 PM EST
Astronomical Twilight 6:02 AM EST 7:21 PM EST
Moon 3:09 PM EST (1/23) 4:34 AM EST (1/23)
Length of Visible Light 11h 22m
Length of Day
10h 30m
Waxing Gibbous, 89% of the Moon is Illuminated
Jan 23
Waxing Gibbous
Jan 26
Full
Feb 3
Last Quarter
Feb 10
New
Feb 17
First Quarter

Hourly Weather History & Observations

Time (EST) Temp. Windchill Dew Point Humidity Pressure Visibility Wind Dir Wind Speed Gust Speed Precip Events Conditions
12:15 AM 35.6 °F - 30.2 °F 81% 30.31 in 10.0 mi Calm Calm - N/A   Unknown
12:55 AM 35.6 °F - 28.4 °F 75% 30.31 in 10.0 mi Calm Calm - N/A   Unknown
1:15 AM 33.8 °F - 28.4 °F 81% 30.32 in 10.0 mi Calm Calm - N/A   Unknown
1:35 AM 35.6 °F - 28.4 °F 75% 30.32 in 10.0 mi Calm Calm - N/A   Unknown
1:55 AM 32.0 °F 28.7 °F 28.4 °F 87% 30.31 in 10.0 mi SSW 3.5 mph - N/A   Unknown
2:15 AM 32.0 °F - 28.4 °F 87% 30.32 in 10.0 mi Calm Calm - N/A   Unknown
2:35 AM 33.8 °F - 28.4 °F 81% 30.31 in 10.0 mi Calm Calm - N/A   Unknown
2:55 AM 32.0 °F - 28.4 °F 87% 30.32 in 10.0 mi Calm Calm - N/A   Unknown
3:15 AM 32.0 °F - 28.4 °F 87% 30.32 in 10.0 mi Calm Calm - N/A   Unknown
3:35 AM 32.0 °F - 28.4 °F 87% 30.32 in 10.0 mi Calm Calm - N/A   Unknown
3:55 AM 32.0 °F - 28.4 °F 87% 30.33 in 10.0 mi Calm Calm - N/A   Unknown
4:15 AM 30.2 °F - 28.4 °F 93% 30.33 in 7.0 mi Calm Calm - N/A   Unknown
4:35 AM 30.2 °F - 28.4 °F 93% 30.33 in 7.0 mi Calm Calm - N/A   Unknown
4:55 AM 30.2 °F - 28.4 °F 93% 30.33 in 7.0 mi Calm Calm - N/A   Unknown
5:35 AM 30.2 °F - 28.4 °F 93% 30.34 in 10.0 mi Calm Calm - N/A   Unknown
5:55 AM 30.2 °F - 28.4 °F 93% 30.35 in 10.0 mi Calm Calm - N/A   Unknown
6:15 AM 30.2 °F - 26.6 °F 86% 30.35 in 10.0 mi Calm Calm - N/A   Unknown
6:35 AM 28.4 °F - 26.6 °F 93% 30.36 in 10.0 mi Calm Calm - N/A   Unknown
6:55 AM 30.2 °F - 26.6 °F 86% 30.36 in 10.0 mi Calm Calm - N/A   Unknown
7:15 AM 30.2 °F - 26.6 °F 86% 30.37 in 7.0 mi Calm Calm - N/A   Unknown
7:35 AM 30.2 °F - 28.4 °F 93% 30.38 in 7.0 mi Calm Calm - N/A   Unknown
7:55 AM 30.2 °F - 26.6 °F 86% 30.39 in 7.0 mi Calm Calm - N/A   Unknown
8:15 AM 32.0 °F - 28.4 °F 87% 30.39 in 7.0 mi Calm Calm - N/A   Unknown
8:35 AM 35.6 °F - 28.4 °F 75% 30.40 in 7.0 mi Calm Calm - N/A   Unknown
8:55 AM 37.4 °F 34.9 °F 28.4 °F 70% 30.40 in 7.0 mi North 3.5 mph - N/A   Unknown
9:15 AM 39.2 °F 35.9 °F 28.4 °F 65% 30.41 in 10.0 mi North 4.6 mph - N/A   Unknown
9:35 AM 42.8 °F 38.6 °F 26.6 °F 53% 30.41 in 10.0 mi North 6.9 mph - N/A   Unknown
9:55 AM 44.6 °F 41.4 °F 26.6 °F 49% 30.42 in 10.0 mi North 5.8 mph - N/A   Unknown
10:15 AM 46.4 °F 43.5 °F 26.6 °F 46% 30.43 in 10.0 mi North 5.8 mph - N/A   Unknown
10:35 AM 48.2 °F - 24.8 °F 40% 30.43 in 10.0 mi NNE 6.9 mph - N/A   Unknown
10:55 AM 50.0 °F - 26.6 °F 40% 30.42 in 10.0 mi Calm Calm - N/A   Clear
11:15 AM 51.8 °F - 26.6 °F 38% 30.42 in 10.0 mi North 5.8 mph - N/A   Clear
11:35 AM 51.8 °F - 26.6 °F 38% 30.40 in 10.0 mi NW 4.6 mph - N/A   Clear
11:55 AM 53.6 °F - 26.6 °F 35% 30.38 in 10.0 mi ENE 3.5 mph - N/A   Clear
12:15 PM 55.4 °F - 28.4 °F 36% 30.37 in 10.0 mi NNW 4.6 mph - N/A   Clear
12:35 PM 55.4 °F - 28.4 °F 36% 30.36 in 10.0 mi WNW 8.1 mph - N/A   Clear
12:55 PM 57.2 °F - 30.2 °F 36% 30.35 in 10.0 mi West 10.4 mph - N/A   Clear
1:15 PM 57.2 °F - 30.2 °F 36% 30.34 in 10.0 mi NNW 6.9 mph - N/A   Clear
1:35 PM 57.2 °F - 30.2 °F 36% 30.33 in 10.0 mi WNW 9.2 mph - N/A   Clear
1:55 PM 57.2 °F - 30.2 °F 36% 30.32 in 10.0 mi West 9.2 mph - N/A   Clear
2:15 PM 59.0 °F - 33.8 °F 39% 30.31 in 10.0 mi West 10.4 mph - N/A   Clear
2:35 PM 59.0 °F - 33.8 °F 39% 30.30 in 10.0 mi West 6.9 mph - N/A   Clear
2:55 PM 60.8 °F - 35.6 °F 39% 30.29 in 10.0 mi West 8.1 mph - N/A   Clear
3:15 PM 60.8 °F - 35.6 °F 39% 30.29 in 10.0 mi NW 9.2 mph - N/A   Clear
3:35 PM 60.8 °F - 35.6 °F 39% 30.28 in 10.0 mi WNW 6.9 mph 17.3 mph N/A   Clear
3:55 PM 60.8 °F - 35.6 °F 39% 30.28 in 10.0 mi NW 8.1 mph - N/A   Clear
4:15 PM 60.8 °F - 35.6 °F 39% 30.28 in 10.0 mi WNW 6.9 mph - N/A   Clear
4:35 PM 60.8 °F - 35.6 °F 39% 30.28 in 10.0 mi West 6.9 mph 10.4 mph N/A   Clear
4:55 PM 59.0 °F - 37.4 °F 45% 30.28 in 10.0 mi West 4.6 mph - N/A   Clear
5:15 PM 59.0 °F - 37.4 °F 45% 30.28 in 10.0 mi West 5.8 mph - N/A   Clear
5:55 PM 55.4 °F - 37.4 °F 51% 30.28 in 10.0 mi West 3.5 mph - N/A   Clear
6:15 PM 53.6 °F - 39.2 °F 58% 30.28 in 10.0 mi WSW 3.5 mph - N/A   Clear
6:35 PM 51.8 °F - 37.4 °F 58% 30.27 in 10.0 mi Calm Calm - N/A   Clear
6:55 PM 51.8 °F - 39.2 °F 62% 30.28 in 10.0 mi Calm Calm - N/A   Clear
7:15 PM 48.2 °F - 37.4 °F 66% 30.29 in 10.0 mi Calm Calm - N/A   Clear
7:35 PM 46.4 °F - 37.4 °F 71% 30.28 in 10.0 mi Calm Calm - N/A   Unknown
7:55 PM 44.6 °F 42.2 °F 37.4 °F 76% 30.27 in 10.0 mi SSW 4.6 mph - N/A   Unknown
8:15 PM 44.6 °F 43.1 °F 37.4 °F 76% 30.28 in 10.0 mi SW 3.5 mph - N/A   Unknown
8:35 PM 46.4 °F 45.2 °F 37.4 °F 71% 30.28 in 10.0 mi SW 3.5 mph - N/A   Unknown
8:55 PM 46.4 °F 45.2 °F 37.4 °F 71% 30.29 in 10.0 mi WSW 3.5 mph - N/A   Unknown
9:15 PM 46.4 °F 44.3 °F 37.4 °F 71% 30.29 in 7.0 mi WSW 4.6 mph - N/A   Unknown
9:35 PM 46.4 °F 44.3 °F 37.4 °F 71% 30.28 in 7.0 mi SW 4.6 mph - N/A   Unknown
9:55 PM 46.4 °F 44.3 °F 37.4 °F 71% 30.28 in 5.0 mi WSW 4.6 mph - N/A   Unknown
10:15 PM 44.6 °F 40.7 °F 39.2 °F 81% 30.27 in 7.0 mi SW 6.9 mph - N/A   Unknown
10:35 PM 44.6 °F 42.2 °F 39.2 °F 81% 30.27 in 7.0 mi SW 4.6 mph - N/A   Unknown
10:55 PM 46.4 °F - 39.2 °F 76% 30.27 in 5.0 mi Calm Calm - N/A   Unknown
11:15 PM 46.4 °F - 39.2 °F 76% 30.28 in 5.0 mi Calm Calm - N/A   Unknown
11:35 PM 44.6 °F 43.1 °F 37.4 °F 76% 30.27 in 5.0 mi SSW 3.5 mph - N/A   Unknown
11:55 PM 42.8 °F 40.1 °F 39.2 °F 87% 30.26 in 7.0 mi SW 4.6 mph - N/A   Unknown